Weather Roundup
Issued by NWS

Home | Current Version | Previous Version | Text Only | Print | Product List | Glossary On
Versions: 1 2 3 4 5 6 7 8 9 10 11 12 13 14 15 16 17 18 19 20 21 22 23 24 25 26 27 28 29 30 31 32 33 34 35 36 37 38 39 40 41 42 43 44 45 46 47 48 49 50
000
NZUS93 KARX 311059
HRRWXR

CURRENT HOURLY OBSERVATIONS ACROSS
MUCH OF THE UPPER MISSISSIPPI VALLEY
NATIONAL WEATHER SERVICE LA CROSSE WI
600 AM CDT MON AUG 31 2015


...SOUTHEAST MINNESOTA...


CITY           SKY/WX    TMP DP  RH WIND       PRES   REMARKS
ROCHESTER      CLOUDY    66  65  96 S12       30.00S FOG
ROCHESTER/MAYO CLOUDY    66  66 100 S7        29.99S
WINONA         CLOUDY    63  63 100 CALM      29.99S
AUSTIN         NOT AVBL
ALBERT LEA     CLOUDY    66  66 100 S7        29.98S FOG
DODGE CENTER   CLOUDY    64  63  94 S13G18    29.98S FOG
PRESTON        FOG       64  63  96 SW7       30.01S VSB 1/2
OWATONNA       CLOUDY    66  64  94 S8        29.96S FOG
FARIBAULT      CLOUDY    66  66 100 S7        29.95S FOG
$$

...ELSEWHERE IN MINNESOTA...


CITY           SKY/WX    TMP DP  RH WIND       PRES   REMARKS
MINNEAPOLIS    MOCLDY    63  62  97 SE7       29.92F FOG
INTNL FALLS    NOT AVBL
DULUTH         MOCLDY    64  62  93 S12       29.88F FOG
RED WING       CLOUDY    64  63  94 SE3       29.95S FOG
REDWOOD FALLS  CLEAR     64  63  96 S8        29.88S
MANKATO        CLOUDY    66  63  88 S12       29.93S
WORTHINGTON    CLEAR     66  61  82 S15       29.93S
FAIRMONT       CLEAR     64  59  82 S10       29.94S
$$

...SOUTHWEST WISCONSIN...


CITY           SKY/WX    TMP DP  RH WIND       PRES   REMARKS
LA CROSSE      MOCLDY    65  63  93 S7        30.00R
PRAIRIE DU CHI CLOUDY    59  58  96 CALM      30.02R FOG
BOSCOBEL       FOG       60  59  96 CALM      30.03R VSB 1/4
LONE ROCK      NOT AVBL
PLATTEVILLE      N/A     60  60 100 SE7       30.04S VSB 3/4
FORT MC COY    CLOUDY    56  54  95 CALM      30.02S
CAMP DOUGLAS   MOCLDY    57  57 100 E5        30.02R
VIROQUA          N/A     64  64 100 S5        30.03S
WIS DELLS      CLOUDY    63  61  95 W3        30.04R FOG
$$

...ELSEWHERE IN WISCONSIN...


CITY           SKY/WX    TMP DP  RH WIND       PRES   REMARKS
MILWAUKEE      FOG       60  59  96 SW6       30.04S VSB 1/4
MADISON        CLEAR     58  57  97 CALM      30.04R FOG
GREEN BAY      FOG       62  61  96 SW6       30.02R VSB 1/4
EAU CLAIRE     MOCLDY    59  58  96 CALM      29.97S FOG
BLACK RVR FLS  FOG       55  55 100 CALM      30.00S VSB 1/4
MEDFORD        FOG       61  61 100 SW3       30.01S VSB 1/4
WAUSAU         FOG       62  61  96 SW5       30.00S VSB 3/4
WIS RAPIDS     FOG       60  58  92 SW5       30.03S VSB 1/4
MARSHFIELD     FOG       60  58  92 S5        30.02R VSB<1/4
RICE LAKE      CLOUDY    64  62  95 S6        29.98S FOG
$$

...NORTHEAST IOWA...


CITY           SKY/WX    TMP DP  RH WIND       PRES   REMARKS
DECORAH        CLOUDY    61  61 100 S5        30.01R FOG
MASON CITY     FOG       61  61 100 S7        30.01S VSB 1/4
CHARLES CITY   FOG       63  63 100 S5        30.01S VSB<1/4
OELWEIN          N/A     59  59 100 SE6       30.03R
$$

...ELSEWHERE IN IOWA...


CITY           SKY/WX    TMP DP  RH WIND       PRES   REMARKS
DES MOINES     CLEAR     69  65  86 SE8       29.97S
IOWA CITY      FOG       61  60  97 CALM      30.03R VSB 3/4
FORT DODGE       N/A     61  57  88 CALM      29.98S VSB 1/2
$$

...NORTHERN ILLINOIS...


CITY           SKY/WX    TMP DP  RH WIND       PRES   REMARKS
CHICAGO-OHARE  FOG       62  62 100 CALM      30.05R VSB 1/8
CHICAGO-MIDWAY PTCLDY    66  63  90 CALM      30.05R FOG
MOLINE         CLEAR     60  58  92 E5        30.03R FOG
ROCKFORD       PTCLDY    59  56  89 CALM      30.06S FOG
PEORIA         CLEAR     68  64  87 E5        30.04R FOG
$$

NOTE: "FAIR" INDICATES FEW OR NO CLOUDS BELOW 12,000 FEET WITH NO
SIGNIFICANT WEATHER AND/OR OBSTRUCTIONS TO VISIBILITY. WIND
SPEEDS ARE IN MILES-PER-HOUR.



USA.gov is the U.S. government's official web portal to all federal, state and local government web resources and services.